ONEWEB-0152 (48043 NORAD) Tracking and Keplerian Element Data

This shows tracking and keplerian element data for the satellite.

Feedback or suggestion? Click here.




ElementValue
Catalog48043
NameONEWEB-0152
Epoch Orbit191
Epoch Day173.91668981
Epoch Year2021
RAAN322.3429
Inclination87.7639
Eccentricity0.0008275
Argument of Perigee328.6694
Mean Anonmoly69.4775
Mean Motion13.68482271
Decay Rate1.5E-07
L11 48043U 21025B 21173.91668981 .00000015 00000-0 00000-0 0 9997
L22 48043 87.7639 322.3429 0008275 328.6694 69.4775 13.68482271 1917

Live tracking and technical data element details for ONEWEB-0152 (NORAD 48043). ONEWEB-0152 can be tracked NOW for your location showing map with azimuth and elevation plus other details from your city location.

Track the satellite on the map from your city or location and see movement details for azimuth, elevation, latitude, longitude, range, height, and movement on the map or in text.







IsCatalogInMostPopularTable: catalog: 48043, numindb: 41
Update: records affected: 1



GetName: 48043 ONEWEB-0152

Hit Count: updated at: Thu, 24 Jun 2021 03:07:51 GMT